Orbital Elements at Epoch 2459000.5 (2020-May-31.0) TDB
Reference: JPL 18 (heliocentric ecliptic J2000)
Element | Value | Uncertainty (1-sigma) | Units |
e | .2107892440581873 | 4.5488e-08 | |
a | 2.448394423186108 | 1.3855e-08 | au |
q | 1.932299213566427 | 1.1491e-07 | au |
i | 3.286108248255154 | 3.982e-06 | deg |
node | 137.6558615117844 | 7.7367e-05 | deg |
peri | 245.3890690747669 | 7.7791e-05 | deg |
M | 248.4352718262821 | 8.302e-06 | deg |
tp | 2459434.155551207034 (2021-Aug-07.65555121) | 3.3888e-05 | TDB |
period | 1399.331141572303 3.83 | 1.1877e-05 3.252e-08 | d yr |
n | .2572657674119225 | 2.1837e-09 | deg/d |
Q | 2.96448963280579 | 1.6775e-08 | au |
|
| | Orbit Determination Parameters
Additional Information
|